Weather History for Billings, MT

Change the Weather History Date:

Wednesday, January 30, 2013

  Actual Average Record
Temperature  
Mean Temperature 20 °F 28 °F  
Max Temperature 32 °F 37 °F 59 °F (1992)
Min Temperature 7 °F 19 °F -21 °F (1996)
Degree Days  
Heating Degree Days 45 37  
Month to date heating degree days 1088 1138  
Since 1 July heating degree days 3629 3959  
Cooling Degree Days 0 0  
Month to date cooling degree days 0 0  
Year to date cooling degree days 0 0  
Moisture  
Dew Point 19 °F    
Average Humidity 78    
Maximum Humidity 92    
Minimum Humidity 63    
Precipitation  
Precipitation 0.09 in 0.01 in 0.36 in (1974)
Month to date precipitation 0.54 0.46  
Year to date precipitation 0.54 0.46  
Snow  
Snow 1.80 in 0.30 in 3.90 in (1974)
Month to date snowfall 10.0 8.2  
Since 1 July snowfall 26.3 28.1  
Snow Depth T in    
Sea Level Pressure  
Sea Level Pressure 29.98 in    
Wind  
Wind Speed 13 mph (NW)    
Max Wind Speed 26 mph    
Max Gust Speed 33 mph    
Visibility 6 miles    
Events Fog , Snow    
T = Trace of Precipitation, MM = Missing Value Source: NWS Daily Summary

Daily Weather History Graph

Daily Weather History Graph

Search for Another Location

Airport:

Trip Planner

Search our weather history database for the weather conditions in past years. The results will help you decide how hot, cold, wet, or windy it might be!

Date:

Astronomy

Jan. 30, 2013 Rise Set
Actual Time 7:37 AM MST 5:17 PM MST
Civil Twilight 7:06 AM MST 5:49 PM MST
Nautical Twilight 6:30 AM MST 6:25 PM MST
Astronomical Twilight 5:55 AM MST 7:00 PM MST
Moon 9:35 PM MST (1/30) 8:53 AM MST (1/30)
Length of Visible Light 10h 43m
Length of Day
9h 39m
Waning Gibbous, 87% of the Moon is Illuminated
Jan 30
Waning Gibbous
Feb 3
Last Quarter
Feb 10
New
Feb 17
First Quarter
Feb 25
Full

Hourly Weather History & Observations

Time (MST) Temp. Windchill Dew Point Humidity Pressure Visibility Wind Dir Wind Speed Gust Speed Precip Events Conditions
12:53 AM 8.1 °F -3.2 °F 3.0 °F 80% 30.10 in 9.0 mi SW 6.9 mph - 0.00 in Snow Light Snow
1:53 AM 9.0 °F -0.9 °F 3.9 °F 80% 30.06 in 10.0 mi SSW 5.8 mph - 0.00 in   Mostly Cloudy
2:53 AM 10.0 °F - 3.9 °F 76% 30.04 in 10.0 mi Calm Calm - N/A   Mostly Cloudy
3:53 AM 10.0 °F -2.9 °F 5.0 °F 80% 30.01 in 9.0 mi South 9.2 mph - 0.00 in Snow Light Snow
4:53 AM 17.1 °F 2.5 °F 8.1 °F 68% 29.98 in 10.0 mi SW 15.0 mph - N/A   Overcast
5:53 AM 19.0 °F 4.0 °F 9.0 °F 65% 29.96 in 10.0 mi SW 17.3 mph - 0.00 in Snow Light Snow
6:53 AM 19.9 °F 3.9 °F 10.9 °F 68% 29.96 in 8.0 mi WSW 20.7 mph - 0.00 in Snow Light Snow
7:53 AM 18.0 °F -0.2 °F 15.1 °F 88% 29.98 in 10.0 mi SW 25.3 mph - 0.00 in   Overcast
8:53 AM 19.9 °F 2.8 °F 14.0 °F 78% 29.97 in 10.0 mi SW 24.2 mph 31.1 mph N/A   Overcast
9:53 AM 23.0 °F 8.7 °F 15.1 °F 72% 29.97 in 10.0 mi SW 18.4 mph 29.9 mph N/A   Mostly Cloudy
10:53 AM 27.0 °F 13.9 °F 17.1 °F 66% 29.96 in 10.0 mi SW 18.4 mph - N/A   Scattered Clouds
11:53 AM 28.9 °F 16.1 °F 18.0 °F 64% 29.94 in 10.0 mi WSW 19.6 mph - N/A   Mostly Cloudy
12:53 PM 28.0 °F 14.6 °F 18.0 °F 66% 29.93 in 10.0 mi WSW 20.7 mph - N/A   Overcast
1:53 PM 28.0 °F 15.3 °F 19.0 °F 69% 29.92 in 10.0 mi WSW 18.4 mph - N/A   Overcast
2:53 PM 30.0 °F 18.3 °F 21.9 °F 72% 29.94 in 10.0 mi WSW 17.3 mph - N/A   Overcast
3:32 PM 30.9 °F 21.7 °F 25.0 °F 79% 29.83 in 1.5 mi ENE 11.5 mph - 0.00 in Snow Light Snow
3:37 PM 30.0 °F 20.5 °F 25.0 °F 82% 29.83 in 0.8 mi ENE 11.5 mph - 0.00 in Snow Light Snow
3:44 PM 28.9 °F 20.4 °F 26.1 °F 89% 29.84 in 0.8 mi NE 9.2 mph - 0.00 in Snow Light Snow
3:53 PM 28.9 °F 19.8 °F 27.0 °F 92% 29.98 in 0.5 mi ENE 10.4 mph - 0.00 in Fog , Snow Light Snow
4:19 PM 28.9 °F 20.4 °F 27.0 °F 92% 29.85 in 1.0 mi NE 9.2 mph - 0.01 in Snow Light Snow
4:53 PM 28.0 °F 21.7 °F 26.1 °F 92% 30.00 in 1.0 mi NNE 5.8 mph - 0.02 in Snow Light Snow
5:06 PM 28.0 °F 22.8 °F 26.1 °F 92% 29.88 in 1.0 mi NNE 4.6 mph - 0.01 in Snow Light Snow
5:31 PM 28.0 °F - 25.0 °F 88% 29.89 in 0.8 mi Calm Calm - 0.02 in Snow Light Snow
5:53 PM 28.0 °F 20.0 °F 25.0 °F 88% 30.02 in 1.0 mi NNW 8.1 mph - 0.03 in Snow Light Snow
6:21 PM 28.0 °F 22.8 °F 25.0 °F 88% 29.91 in 4.0 mi NW 4.6 mph - 0.00 in Snow Light Snow
6:41 PM 28.0 °F 21.7 °F 25.0 °F 88% 29.91 in 7.0 mi NNW 5.8 mph - 0.00 in Snow Light Snow
6:53 PM 27.0 °F 21.6 °F 25.0 °F 92% 30.03 in 7.0 mi NW 4.6 mph - 0.00 in Snow Light Snow
7:24 PM 27.0 °F 20.5 °F 25.0 °F 92% 29.93 in 2.0 mi WNW 5.8 mph - 0.00 in Snow Light Snow
7:36 PM 27.0 °F 18.0 °F 24.1 °F 89% 29.93 in 1.2 mi NNW 9.2 mph - 0.01 in Snow Light Snow
7:53 PM 26.1 °F 16.2 °F 23.0 °F 88% 30.07 in 1.0 mi North 10.4 mph - 0.01 in Snow Light Snow
8:53 PM 25.0 °F 19.3 °F 23.0 °F 92% 30.08 in 1.0 mi NNW 4.6 mph - 0.02 in Snow Light Snow
9:10 PM 25.0 °F 18.1 °F 23.0 °F 92% 29.96 in 1.0 mi NNW 5.8 mph - 0.00 in Snow Light Snow
9:26 PM 25.0 °F 16.3 °F 21.9 °F 88% 29.97 in 9.0 mi North 8.1 mph - 0.00 in Snow Light Snow
9:53 PM 24.1 °F 14.4 °F 21.0 °F 88% 30.09 in 4.0 mi North 9.2 mph - 0.01 in Snow Light Snow
10:53 PM 24.1 °F 13.7 °F 19.0 °F 81% 30.09 in 8.0 mi North 10.4 mph - 0.00 in Snow Light Snow
11:07 PM 24.1 °F 13.7 °F 19.0 °F 81% 29.97 in 9.0 mi North 10.4 mph - 0.00 in Snow Light Snow
11:53 PM 18.0 °F 4.8 °F 16.0 °F 92% 30.13 in 7.0 mi NE 12.7 mph - 0.00 in Snow Light Snow